User: anonymous   Login
Location: Obersdorf
(47.4079°N, 10.2781°E)
Time: 20:31:36
(UTC+01:00)
Language:

JY1SAT - Orbit

View from above orbital plane
View from above orbital plane
View from above satellite
View from above satellite

Ground track
Ground track

The orbit data is extracted from the following two-line orbital elements,

1 43803U 18099AX  21341.16966970  .00000313  00000-0  32807-4 0  9991
2 43803  97.6457  47.9238 0014766 187.4063 172.6943 14.96140805164319
Epoch (UTC): 07 December 2021 04:04:19
Eccentricity: 0.0014766
inclination: 97.6457°
perigee height: 568 km
apogee height: 589 km
right ascension of ascending node: 47.9238°
argument of perigee: 187.4063°
revolutions per day: 14.96140805
mean anomaly at epoch: 172.6943°
orbit number at epoch: 16431

The dashed part of the orbit path shows where the satellite is in the earth's shadow,  

DLR